METEOR 1-17 DEB, 57537

Orbit data source: Space-Track

METEOR 1-17 DEB, 57537 is space debris in LEO originally from a Commonwealth of Independent States-origin launch on Wed, 24 Apr 1974 UTC launched from the Plesetsk Missile And Space Complex (PKMTR). Debris objects in space refer to the collection of defunct objects orbiting the Earth. Examples of debris include non-operational satellites, rocket bodies, and fragments generated from explosions, collisions, or faulty payload assembly.

Loading next visibility...
Identifier
57537, 1974-025C
Orbit
LEO
Country
Flag of CISCIS
Related business
Manufacturer
VNIIEM
Mission
Spacecraft
Bus & Motor
Unknown
Mass
Unknown
Launch date (UTC)
1974-04-24 (52 years ago)
Launch vehicle
Unknown
Launch site
Plesetsk Missile And Space Complex (PKMTR)
Object type
Payload
Rocket body
Debris
Shape & HBR
Unknown shape, 0.1 m
Radar Cross Section
Small (<0.1 m²)

Expand to show TLE details & history
Last TLE update: 3 days ago

TLE from 3 days ago
0 METEOR 1-17 DEB
1 57537U 74025C   26170.56665651  .00004199  00000-0  18042-2 0  9991
2 57537  81.2001 280.5636 0008944  76.2979 283.9195 14.24553070151056
Epoch: 2026-06-19T13:35Z
TLE epoch observation values (Epoch: 2026-06-19T13:35:59.122Z)
Latitude
-0.00001°
Longitude
168.77347°
Altitude
811.372 km
Speed
7.448 km/s
True Right ascension
18h 42m 15s
True Declination
0° 00' 00"
Sunlit
Object was in full shadow at epoch
Visualization orbit readout
Latitude
Unknown
Longitude
Unknown
Altitude
Unknown
Speed
Unknown
Apparent Right ascension
Unknown
Apparent Declination
Unknown
Sunlit
N/A
Visualization observer readout
Local Sidereal Time
02:13:10
Azimuth
Unknown
Elevation
Unknown
Doppler factor
Unknown
Orbital elements
Apogee altitude
813.579 km
Perigee altitude
800.726 km
Semi-major axis
7,185.29 km
Eccentricity
0.00089
Inclination
81.2001°
RAAN
280.5636°
Arg. of periapsis
76.2979°
True anomaly
283.81999°
Mean anomaly
283.9195°
Eccentric anomaly
283.86975°
Mean motion
3.5635 °/min
Orbital period
101.02 mins
BSTAR
0.0018042
Loading maneuver chart data...
Computing Atmospheric mass density...
Loading historical data...
Loading historical data...
Loading historical data...
Loading historical data...
Loading historical data...
Loading historical data...
Loading historical data...

Documentation

Showing up to 5 results
|